Other Public Products
Issued by NWS Charleston, SC

Home | Current Version | Previous Version | Text Only | Print | Product List | Glossary On
Versions: 1 2 3 4 5 6 7 8 9 10 11 12 13 14 15 16 17 18 19 20 21 22 23 24 25 26 27 28 29 30 31 32 33 34 35 36 37 38 39 40 41 42 43 44 45 46 47 48 49 50
530
FPUS82 KCHS 252027
OPUCHS

TEST...KCHS/KSAV Gateway Observations...TEST
National Weather Service Charleston SC
400 PM EDT SUN JUN 25 2017

NOTE: "fair" indicates few or no clouds below 12,000 feet with no
significant weather and/or obstructions to visibility.

SCZ050-WAZ558-NCZ071-TXZ119-213-PAZ071-DCZ001-FLZ074-172-MI076-
NYZ176-178-MAZ016-IL014-TNZ027-NJZ106-GAZ044-MD014-252100-

...Gateway Observations for Charleston International...

CITY           SKY/WX    TMP DP  RH WIND       PRES   REMARKS
Chas Airport   TSTM      76  72  87 NW8       30.07R
Seattle        PTSUNNY   89  55  31 N7        29.90F
Charlotte      PTSUNNY   80  64  58 N6        30.10F
Dallas DFW     PTSUNNY   86  64  47 E9G16     30.17F
Dallas Love    MOSUNNY   86  62  44 E8        30.18F
Philladelphia  PTSUNNY   85  54  34 SW12      29.94F
Wash National  PTSUNNY   87  53  31 W5        29.98F
Baltimore      MOSUNNY   85  50  29 W13       29.97F
Miami          MOSUNNY   90  73  57 SE13G20   30.08F HX  98
Detroit        PTSUNNY   71  48  43 W16G25    30.03S
Newark         PTSUNNY   82  59  45 N12       29.92S
Laguardia      CLOUDY    76  60  57 N3        29.94R
J F K          PTSUNNY   79  61  53 S20       29.94F
Boston Logan   CLOUDY    82  50  32 W7        29.86F
Ft. Lauderdale PTSUNNY   88  74  63 SE15      30.07F HX  96
Chicago O`Hare PTSUNNY   70  45  40 W22       30.09R
Chicago Midway PTSUNNY   71  46  40 W17       30.09F
Houston Bush   LGT RAIN  80  74  81 E9        30.10F
Houston Hobby  CLOUDY    84  76  76 NE8       30.10F HX  93
Nashville      MOSUNNY   83  47  28 N15G25    30.20F
Atlanta        CLOUDY    80  62  54 NW14      30.13F

$$

GAZ044-118-TXZ119-213-NCZ071-DCZ001-MDZ014-506-PAZ021-071-NJZ106-
NYZ176-178-MAZ106-OHZ011-021-055-MIZ076-KYZ091-ILZ014-INZ047-
MNZ060-ONZ431-252100-

...Gateway Observations for Savannah International...

CITY           SKY/WX    TMP DP  RH WIND       PRES   REMARKS
Savannah Arpt  TSTM      76  73  91 NE8       30.03F
Atlanta        CLOUDY    80  62  54 NW14      30.13F
Charlotte      PTSUNNY   80  64  58 N6        30.10F
Dallas DFW     PTSUNNY   86  64  47 E9G16     30.17F
Houston Bush   LGT RAIN  80  74  81 E9        30.10F
Wash National  PTSUNNY   87  53  31 W5        29.98F
Wash Dulles    PTSUNNY   85  52  32 NW12      30.00F
Baltimore      MOSUNNY   85  50  29 W13       29.97F
Philadelphia   PTSUNNY   85  54  34 SW12      29.94F
Newark         PTSUNNY   82  59  45 N12       29.92S
Laguardia      CLOUDY    76  60  57 N3        29.94R
J F K          PTSUNNY   79  61  53 S20       29.94F
Boston         CLOUDY    82  50  32 W7        29.86F
Pittsburg      MOSUNNY   74  46  36 W10       30.04S
Akron          MOSUNNY   76  45  33 W17G25    30.04S
Cleveland      MOSUNNY   73  47  39 W22G29    30.06R
Cincinnati     MOSUNNY   75  47  36 W12G25    30.12F
Columbus       MOSUNNY   76  47  35 W17       30.08S
Detroit        PTSUNNY   71  48  43 W16G25    30.03S
Chicago O`Hare PTSUNNY   70  45  40 W22       30.09R
Minneapolis    PTSUNNY   68  43  40 NW17G24   30.14S
Indianapolis   MOSUNNY   74  48  39 W10G20    30.13F
Toronto Canada MOSUNNY   68  48  49 NW18G31   29.93R

$$




USA.gov is the U.S. government's official web portal to all federal, state and local government web resources and services.